IRIDIUM 33 DEB, 35915

Orbit data source: Space-Track

IRIDIUM 33 DEB, 35915 is space debris in LEO originally from a launch on Sun, 14 Sep 1997 UTC launched from the Tyuratam Missile And Space Complex (TTMTR). The debris from Iridium 33, an American commercial communications satellite, has been tracked extensively since its accidental collision with the defunct Russian satellite Cosmos 2251 in 2009. This event, occurring at high speed in low Earth orbit (LEO), generated thousands of pieces of space debris, significantly increasing the risk of further collisions. The Iridium 33 debris cloud has impacted space traffic management and orbital debris mitigation strategies, making it a subject of ongoing study in space situational awareness.

Loading next visibility...
Identifier
35915, 1997-051TY
Orbit
LEO
Country
Flag of USUS
Related business
Manufacturer
Unknown
Mission
Spacecraft
Bus & Motor
Unknown
Mass
Unknown
Launch date (UTC)
1997-09-14 (28 years ago)
Launch vehicle
Unknown
Launch site
Tyuratam Missile And Space Complex (TTMTR)
Object type
Payload
Rocket body
Debris
Shape & HBR
Unknown shape, 0.1 m
Radar Cross Section
Small (<0.1 m²)

Expand to show TLE details & history
Last TLE update: 2 days ago

TLE from 2 days ago
0 IRIDIUM 33 DEB
1 35915U 97051TY  26036.05333417  .00022062  00000-0  27236-2 0  9992
2 35915  86.3464 318.1108 0013217  22.0734 338.1055 14.82682102 88904
Epoch: 2026-02-05T01:16Z
TLE epoch observation values (Epoch: 2026-02-05T01:16:48.072Z)
Latitude
-0°
Longitude
163.69941°
Altitude
615.406 km
Speed
7.556 km/s
True Right ascension
21h 12m 26s
True Declination
0° 00' 00"
Sunlit
Object was in daylight at epoch
Visualization orbit readout
Latitude
Unknown
Longitude
Unknown
Altitude
Unknown
Speed
Unknown
Apparent Right ascension
Unknown
Apparent Declination
Unknown
Sunlit
N/A
Visualization observer readout
Local Sidereal Time
06:36:29
Azimuth
Unknown
Elevation
Unknown
Doppler factor
Unknown
Orbital elements
Apogee altitude
627.015 km
Perigee altitude
608.522 km
Semi-major axis
6,995.905 km
Eccentricity
0.00132
Inclination
86.3464°
RAAN
318.1108°
Arg. of periapsis
22.0734°
True anomaly
338.04894°
Mean anomaly
338.1055°
Eccentric anomaly
338.07723°
Mean motion
3.70917 °/min
Orbital period
97.06 mins
BSTAR
0.0027236
Loading maneuver chart data...
Computing Atmospheric mass density...

Documentation

Showing up to 5 results
|